Date,Time,WIND SPEED (AVG),AIR TEMP (MIN),AIR TEMP (MAX),Humidity (MIN),WIND DIRECTION (AVG),AIR TEMP (AVG),Humidity (AVG),Humidity ,ΑΓΙΟΣ ΣΤΕΦΑΝΟΣ ETo (SUM),Rain (SUM),WIND SPEED (MAX),ΑΓ ΣΤΕΦΑΝΟΣ Rain Duration (SUM),SOLAR (AVG),BAROMETER (AVG),WIND SPEED (MIN)
01/03/2015,00:00:00,*,*,*,*,*,*,*,*,32.67,*,*,4560.0,*,*,*
31/03/2015,00:00:00,*,*,*,*,*,*,*,*,*,*,*,*,*,*,*
30/04/2015,00:00:00,1.9,7.1,17.2,43.3,224.6,11.5,76.3,43.3,1.78,1.7,89.3,76.5,139.0,968.4,0.0
30/05/2015,00:00:00,*,5.4,24.2,13.4,298.9,14.1,61.9,13.4,3.41,2.2,*,62.0,238.4,968.0,*
29/06/2015,00:00:00,*,13.3,28.5,5.1,242.3,19.2,58.5,5.1,8.65,0.1,*,9.7,277.6,965.1,*
29/07/2015,00:00:00,1.9,15.1,31.3,12.6,217.5,21.8,57.4,12.6,10.64,0.0,7.7,0.0,305.1,964.8,0.0
28/08/2015,00:00:00,2.2,19.3,32.5,19.5,212.7,25.1,50.0,19.5,18.49,0.0,10.6,0.0,317.5,962.9,0.0
27/09/2015,00:00:00,*,21.6,32.4,21.2,250.9,26.0,55.5,21.2,21.30,0.1,*,3.9,275.4,964.1,*
27/10/2015,00:00:00,*,17.7,36.3,16.0,298.1,24.4,61.8,16.0,15.10,2.9,*,56.0,217.7,965.6,*
26/11/2015,00:00:00,*,13.3,26.0,32.7,306.6,19.5,70.0,32.7,12.11,3.9,*,212.6,166.7,967.5,*
26/12/2015,00:00:00,*,11.3,22.1,31.4,271.2,16.3,66.5,31.4,10.39,1.8,*,80.0,130.7,970.3,*
25/01/2016,00:00:00,3.7,1.9,18.9,27.3,214.3,12.2,66.2,27.3,11.35,6.4,99.9,243.8,111.6,975.8,0.1
24/02/2016,00:00:00,2.1,1.4,18.6,37.0,195.2,10.4,72.7,37.0,9.14,17.5,11.0,657.0,80.9,969.7,0.0
25/03/2016,00:00:00,1.9,5.6,23.1,21.1,193.3,13.2,69.1,21.1,11.86,11.6,17.0,266.9,138.1,970.4,0.0
24/04/2016,00:00:00,2.6,7.5,20.3,22.3,199.6,12.7,67.7,22.3,18.04,0.9,93.1,60.7,184.8,964.9,0.0
24/05/2016,00:00:00,1.4,11.4,25.9,10.5,187.3,17.9,52.5,10.5,28.57,0.0,9.2,0.0,262.4,965.5,0.0
23/06/2016,00:00:00,1.6,12.2,31.3,16.3,211.3,19.0,58.1,16.3,33.47,0.3,9.7,23.2,252.0,965.4,0.1
23/07/2016,00:00:00,1.9,16.7,34.2,10.8,198.9,24.7,48.3,10.8,46.63,0.0,10.1,0.0,304.7,964.0,0.0
22/08/2016,00:00:00,2.8,19.6,31.9,12.2,234.6,25.4,47.4,12.2,60.01,0.0,18.1,0.0,312.8,962.0,0.1
21/09/2016,00:00:00,2.1,20.3,33.6,9.2,227.9,26.1,49.0,9.2,57.46,0.0,11.1,0.0,272.6,963.4,0.0
21/10/2016,00:00:00,2.2,16.9,31.3,18.0,219.9,22.4,58.5,18.0,42.63,7.3,11.7,130.0,220.1,966.6,0.0
20/11/2016,00:00:00,1.9,11.7,28.6,18.6,201.7,19.8,62.5,18.6,32.82,36.2,12.6,277.4,166.7,968.9,0.0
20/12/2016,00:00:00,1.8,8.3,21.8,32.5,186.5,15.7,69.8,32.5,20.18,22.2,10.0,374.0,108.6,971.0,0.1
19/01/2017,00:00:00,2.2,3.1,17.1,31.8,204.0,9.4,68.3,31.8,15.62,137.0,17.1,2578.3,81.8,971.7,0.1
18/02/2017,00:00:00,2.2,0.8,14.5,40.4,208.8,9.0,70.7,40.4,17.63,54.8,13.4,1484.4,96.5,968.9,0.0
20/03/2017,00:00:00,2.0,4.9,16.7,41.7,200.2,10.8,73.6,41.7,19.94,16.5,13.0,459.6,140.5,972.1,0.1
19/04/2017,00:00:00,1.7,7.5,20.2,19.5,189.0,12.4,69.8,19.5,28.10,66.2,10.0,1321.0,177.4,965.2,0.0
19/05/2017,00:00:00,1.6,8.3,23.2,8.8,195.6,14.9,61.4,8.8,40.52,8.0,10.8,276.0,234.5,967.5,0.0
18/06/2017,00:00:00,1.5,14.2,31.8,7.4,199.0,19.3,58.1,7.4,54.53,10.1,10.2,188.7,254.3,965.5,0.0
18/07/2017,00:00:00,1.7,18.0,37.6,14.2,200.8,24.4,47.2,14.2,74.45,1.0,9.3,39.0,300.1,965.0,0.0
17/08/2017,00:00:00,2.3,19.9,37.2,12.0,215.5,26.4,44.7,12.0,91.97,0.0,12.4,0.0,311.6,961.9,0.0
16/09/2017,00:00:00,2.4,19.6,32.7,20.9,223.7,25.5,51.4,20.9,86.12,0.1,13.2,14.5,275.6,962.5,0.1
16/10/2017,00:00:00,1.5,17.4,34.2,10.3,210.3,23.8,48.6,10.3,65.85,3.1,6.7,60.0,219.7,966.6,0.0
15/11/2017,00:00:00,2.1,13.5,25.8,28.2,207.9,18.1,62.4,28.2,47.86,30.3,14.9,372.1,173.5,967.8,0.1
15/12/2017,00:00:00,1.6,9.6,20.5,37.6,202.8,14.8,70.0,37.6,27.97,11.6,10.8,336.0,111.6,969.1,0.0
14/01/2018,00:00:00,2.0,5.8,18.7,39.8,195.2,12.7,73.0,39.8,23.02,35.2,11.8,1085.8,81.9,971.0,0.0
13/02/2018,00:00:00,2.5,4.6,17.1,21.0,212.3,10.9,69.5,21.0,27.83,42.3,19.1,1445.8,99.8,968.5,0.0
15/03/2018,00:00:00,1.8,6.5,18.6,16.6,188.5,12.2,74.4,16.6,25.17,50.6,10.1,1285.7,113.7,965.2,0.0
14/04/2018,00:00:00,1.4,9.1,20.7,16.3,196.4,14.1,69.4,16.3,40.95,10.2,10.6,197.2,166.7,963.9,0.0
14/05/2018,00:00:00,1.5,11.5,29.2,4.5,195.9,18.1,50.5,4.5,68.35,1.2,11.4,17.0,249.4,966.1,0.0
13/06/2018,00:00:00,1.6,15.0,30.5,15.2,196.2,21.2,54.5,15.2,82.55,1.4,9.1,139.3,266.0,963.6,0.0
13/07/2018,00:00:00,1.5,17.9,31.6,13.5,201.5,23.4,56.5,13.5,91.55,4.9,11.7,126.0,283.6,962.8,0.1
12/08/2018,00:00:00,2.2,19.4,36.3,9.7,211.2,26.2,50.2,9.7,117.51,1.1,12.4,36.8,300.5,961.6,0.0
11/09/2018,00:00:00,2.2,21.3,31.3,25.9,221.7,25.5,54.1,25.9,113.06,0.0,11.7,0.0,278.8,962.8,0.0
11/10/2018,00:00:00,2.2,16.2,32.1,21.8,209.6,23.0,57.8,21.8,88.41,5.1,10.7,140.0,223.1,966.1,0.0
10/11/2018,00:00:00,1.7,11.8,28.1,17.4,192.6,19.0,63.7,17.4,60.97,25.9,10.5,264.4,165.9,968.9,0.0
10/12/2018,00:00:00,2.1,9.5,26.6,14.6,191.0,16.1,68.8,14.6,41.94,76.7,13.1,1700.9,111.7,968.6,0.1
09/01/2019,00:00:00,2.4,5.9,16.7,32.4,208.0,11.4,70.1,32.4,29.37,89.4,19.6,2618.6,78.1,968.1,0.0
08/02/2019,00:00:00,2.5,1.5,14.8,38.5,204.1,9.8,72.6,38.5,29.13,235.4,12.2,4763.8,81.8,962.8,0.0
10/03/2019,00:00:00,1.9,5.3,16.6,47.8,192.6,10.3,74.1,47.8,30.48,178.0,14.3,3284.9,105.9,967.6,0.0
09/04/2019,00:00:00,1.8,7.1,20.7,21.9,200.6,12.5,68.5,21.9,57.69,130.6,11.1,1936.3,192.9,967.4,0.0
09/05/2019,00:00:00,1.7,8.7,24.6,8.4,204.9,14.2,66.2,8.4,63.81,124.8,9.8,1430.0,200.5,966.4,0.0
08/06/2019,00:00:00,1.5,11.1,29.6,9.2,195.5,18.9,57.4,9.2,94.98,4.0,7.5,111.3,261.5,965.4,0.0
08/07/2019,00:00:00,2.2,15.3,31.9,22.5,207.7,23.6,55.8,22.5,134.03,0.6,12.3,46.0,313.2,964.3,0.0
07/08/2019,00:00:00,2.3,19.8,34.9,17.4,209.0,25.5,49.0,17.4,151.49,3.3,12.2,69.7,314.6,961.9,0.1
06/09/2019,00:00:00,2.3,19.9,34.0,11.6,204.5,26.2,48.4,11.6,155.21,0.0,13.0,0.0,291.0,962.6,0.1
06/10/2019,00:00:00,2.4,16.7,28.5,14.8,215.6,22.4,55.5,14.8,118.67,0.0,11.4,0.0,242.2,965.6,0.1
05/11/2019,00:00:00,1.8,15.3,29.0,18.0,179.6,20.8,63.1,18.0,81.20,5.2,8.1,125.8,169.9,967.8,0.0
05/12/2019,00:00:00,1.4,13.3,23.7,22.8,181.6,17.8,75.2,22.8,44.87,104.2,9.5,1508.0,109.4,967.9,0.0
04/01/2020,00:00:00,2.3,6.7,18.7,36.8,201.6,12.8,71.4,36.8,41.79,221.2,15.6,3867.0,93.8,966.9,0.0
03/02/2020,00:00:00,2.7,4.8,16.5,9.0,207.5,10.0,69.6,9.0,44.46,319.9,12.6,5527.6,103.9,970.5,0.0
04/03/2020,00:00:00,2.2,4.2,17.0,31.3,189.8,10.8,74.2,31.3,44.60,157.3,13.0,3323.7,123.5,968.7,0.0
03/04/2020,00:00:00,2.1,7.1,21.1,23.4,199.1,12.2,75.7,23.4,61.07,75.0,11.7,1408.8,161.8,965.6,0.0
03/05/2020,00:00:00,2.1,9.7,21.7,12.0,204.3,14.3,65.0,12.0,93.08,47.4,13.8,1400.0,231.8,965.4,0.0
02/06/2020,00:00:00,2.0,12.1,37.6,4.3,194.2,20.8,49.0,4.3,144.55,41.0,11.5,645.5,278.8,966.8,0.1
02/07/2020,00:00:00,1.7,13.6,29.6,16.5,206.3,21.7,61.2,16.5,144.33,19.1,10.1,348.0,294.2,963.4,0.1
01/08/2020,00:00:00,2.3,20.3,33.9,18.6,218.8,26.1,44.4,18.6,200.76,1.5,11.0,58.1,311.3,961.1,0.1
31/08/2020,00:00:00,*,*,*,*,*,*,*,*,*,*,*,*,*,*,*
30/09/2020,00:00:00,2.4,21.0,33.7,14.0,210.8,26.1,45.9,14.0,6.24,0.0,10.4,0.0,286.3,961.3,0.1
30/10/2020,00:00:00,2.1,18.9,34.5,7.5,200.5,24.5,57.3,7.5,4.57,1.9,11.9,14.0,226.7,965.4,0.1
29/11/2020,00:00:00,1.5,15.3,32.4,13.6,185.8,21.2,63.4,13.6,5.51,6.0,10.6,65.7,152.7,968.3,0.1
29/12/2020,00:00:00,2.3,10.1,20.3,42.9,198.6,15.0,69.4,42.9,3.84,7.2,10.6,147.9,106.4,969.9,0.0
28/01/2021,00:00:00,2.0,10.7,19.3,44.2,193.9,13.5,75.8,44.2,3.81,13.3,10.8,261.2,83.7,968.4,0.0
27/02/2021,00:00:00,2.1,4.7,24.8,31.3,199.4,12.0,75.6,31.3,5.22,11.7,14.0,332.8,88.1,967.9,0.0
29/03/2021,00:00:00,2.2,0.9,19.5,21.1,190.2,11.8,72.8,21.1,4.12,9.7,16.7,186.4,152.6,970.3,0.0
